Roros Lufthavn, Norway

10:17 PM CEST on September 23, 2017 (GMT +0200)
Roros

Weather History for ENRO - December, 2012

Change the Weather History Date:

Sunday, December 9, 2012

  Actual Average Record
Temperature  
Mean Temperature -2 °F -  
Max Temperature 15 °F 21 °F 42 °F (2015)
Min Temperature -18 °F 14 °F -18 °F (2008)
Degree Days  
Heating Degree Days 66    
Moisture  
Dew Point -2 °F    
Average Humidity 80    
Maximum Humidity 86    
Minimum Humidity 70    
Precipitation  
Precipitation 0.00 in - - ()
Sea Level Pressure  
Sea Level Pressure 29.75 in    
Wind  
Wind Speed 5 mph ()    
Max Wind Speed 18 mph    
Max Gust Speed -    
Visibility 5.8 miles    
Events Snow    
Averages and records for this station are not official NWS values.
T = Trace of Precipitation, MM = Missing Value Source: Averaged Metar Reports

Daily Weather History Graph

Daily Weather History Graph

Search for Another Location

Airport or City:

Trip Planner

Search our weather history database for the weather conditions in past years. The results will help you decide how hot, cold, wet, or windy it might be!

Date:

Astronomy

Dec. 09, 2012 Rise Set
Actual Time 9:31 AM CET 2:42 PM CET
Civil Twilight 8:25 AM CET 3:48 PM CET
Nautical Twilight 7:22 AM CET 4:51 PM CET
Astronomical Twilight 6:26 AM CET 5:47 PM CET
Moon 3:27 AM CET (12/9) 12:48 PM CET (12/9)
Length of Visible Light 7h 23m
Length of Day
5h 10m
Waning Crescent, 21% of the Moon is Illuminated
Dec 9
Waning Crescent
Dec 13
New
Dec 20
First Quarter
Dec 28
Full
Jan 5
Last Quarter

Hourly Weather History & Observations

Time (CET) Temp. Windchill Dew Point Humidity Pressure Visibility Wind Dir Wind Speed Gust Speed Precip Events Conditions
12:20 AM -16.6 °F - -22.0 °F 76% 29.80 in 6.2 mi Variable 1.2 mph - N/A   Unknown
12:50 AM -18.4 °F - -23.8 °F 76% 29.77 in 6.2 mi Variable 1.2 mph - N/A Snow Light Snow
1:20 AM -18.4 °F - -23.8 °F 76% 29.77 in - Calm Calm - N/A Snow Light Snow
1:50 AM -18.4 °F - -23.8 °F 76% 29.74 in - Calm Calm - N/A Snow Light Snow
2:20 AM -18.4 °F - -23.8 °F 76% 29.74 in 4.3 mi SW 1.2 mph - N/A Snow Light Snow
2:50 AM -16.6 °F - -23.8 °F 70% 29.74 in 6.2 mi Variable 1.2 mph - N/A Snow Light Snow
3:20 AM -18.4 °F - -23.8 °F 76% 29.71 in 5.0 mi Variable 1.2 mph - N/A Snow Light Snow
3:50 AM -18.4 °F - -23.8 °F 76% 29.71 in 3.1 mi WNW 2.3 mph - N/A Snow Light Snow
4:20 AM -18.4 °F - -23.8 °F 76% 29.71 in 6.2 mi Variable 1.2 mph - N/A Snow Light Snow
4:50 AM -16.6 °F - -22.0 °F 76% 29.68 in 6.2 mi WNW 2.3 mph - N/A Snow Light Snow
5:20 AM -16.6 °F - -23.8 °F 70% 29.68 in 6.2 mi Variable 2.3 mph - N/A   Unknown
5:50 AM -16.6 °F - -22.0 °F 76% 29.68 in 6.2 mi Variable 2.3 mph - N/A Snow Light Snow
6:20 AM -14.8 °F - -20.2 °F 77% 29.68 in 6.2 mi Calm Calm - N/A Snow Light Snow
6:50 AM -13.0 °F -22.7 °F -18.4 °F 77% 29.68 in 6.2 mi West 3.5 mph - N/A Snow Light Snow
7:20 AM -11.2 °F -20.6 °F -16.6 °F 77% 29.68 in 1.6 mi WNW 3.5 mph - N/A Snow Light Snow
7:50 AM -7.6 °F - -11.2 °F 84% 29.68 in - Calm Calm - N/A Snow Light Snow
8:20 AM 1.4 °F - -2.2 °F 85% 29.68 in 3.1 mi Variable 1.2 mph - N/A Snow Light Snow
8:50 AM 8.6 °F -5.5 °F 5.0 °F 85% 29.68 in 6.2 mi SE 10.4 mph - N/A Snow Light Snow
9:20 AM 8.6 °F -7.0 °F 5.0 °F 85% 29.68 in 6.2 mi SE 12.7 mph - N/A Snow Light Snow
9:50 AM 8.6 °F -7.0 °F 5.0 °F 85% 29.68 in 6.2 mi SE 12.7 mph - N/A Snow Light Snow
10:20 AM 8.6 °F -6.3 °F 5.0 °F 85% 29.68 in 6.2 mi SE 11.5 mph - N/A Snow Light Snow
10:50 AM 10.4 °F -4.1 °F 5.0 °F 79% 29.68 in 6.2 mi SE 11.5 mph - N/A Snow Light Snow
11:20 AM 10.4 °F -6.0 °F 5.0 °F 79% 29.68 in 6.2 mi SE 15.0 mph - N/A Snow Light Snow
11:50 AM 10.4 °F -6.0 °F 6.8 °F 85% 29.68 in 6.2 mi SE 15.0 mph - N/A Snow Light Snow
12:20 PM 10.4 °F -6.0 °F 6.8 °F 85% 29.71 in 6.2 mi SE 15.0 mph - N/A Snow Light Snow
12:50 PM 12.2 °F -4.3 °F 6.8 °F 79% 29.71 in 6.2 mi ESE 16.1 mph - N/A   Ice Crystals
1:20 PM 12.2 °F -3.1 °F 6.8 °F 79% 29.71 in 6.2 mi SE 13.8 mph - N/A Snow Light Snow
1:50 PM 12.2 °F -4.8 °F 6.8 °F 79% 29.71 in 5.6 mi ESE 17.3 mph - N/A Snow Light Snow
2:20 PM 12.2 °F -5.3 °F 8.6 °F 85% 29.71 in 5.0 mi ESE 18.4 mph - N/A Snow Light Snow
2:50 PM 12.2 °F -4.8 °F 8.6 °F 85% 29.74 in 5.6 mi ESE 17.3 mph - N/A   Mostly Cloudy
3:20 PM 12.2 °F -2.5 °F 8.6 °F 85% 29.74 in 6.2 mi SE 12.7 mph - N/A   Mostly Cloudy
4:20 PM 14.0 °F -1.4 °F 8.6 °F 79% 29.77 in 6.2 mi ESE 15.0 mph - N/A   Mostly Cloudy
5:20 PM 15.8 °F 3.4 °F 10.4 °F 79% 29.77 in 6.2 mi ESE 10.4 mph - N/A   Mostly Cloudy
6:20 PM 15.8 °F 2.1 °F 10.4 °F 79% 29.80 in 6.2 mi ESE 12.7 mph - N/A   Mostly Cloudy
6:50 PM 15.8 °F 0.9 °F 10.4 °F 79% 29.80 in 6.2 mi ESE 15.0 mph - N/A   Partly Cloudy
7:20 PM 15.8 °F 3.4 °F 10.4 °F 79% 29.80 in 6.2 mi ESE 10.4 mph - N/A   Scattered Clouds
7:50 PM 15.8 °F 6.1 °F 12.2 °F 86% 29.83 in - East 6.9 mph - N/A   Clear
8:20 PM 15.8 °F - 12.2 °F 86% 29.83 in - Variable 1.2 mph - N/A   Clear
8:50 PM 15.8 °F 5.1 °F 12.2 °F 86% 29.86 in 6.2 mi ESE 8.1 mph - N/A   Scattered Clouds
9:20 PM 15.8 °F 6.1 °F 12.2 °F 86% 29.86 in 6.2 mi ESE 6.9 mph - N/A Snow Light Snow
9:50 PM 15.8 °F 5.1 °F 12.2 °F 86% 29.86 in 6.2 mi SE 8.1 mph - N/A   Ice Crystals
10:20 PM 15.8 °F 2.7 °F 10.4 °F 79% 29.89 in 6.2 mi SE 11.5 mph - N/A   Overcast
10:50 PM 15.8 °F 2.7 °F 10.4 °F 79% 29.89 in 6.2 mi ESE 11.5 mph - N/A   Overcast
11:20 PM 15.8 °F 3.4 °F 10.4 °F 79% 29.89 in 6.2 mi ESE 10.4 mph - N/A   Overcast
11:50 PM 15.8 °F 3.4 °F 10.4 °F 79% 29.92 in 6.2 mi SE 10.4 mph - N/A   Overcast